Bemidji, MN

6:10 AM CST on December 10, 2016 (GMT -0600)
Bemidji-Beltrami County

Weather History for KBJI - October, 2013

Change the Weather History Date:

Saturday, October 19, 2013

  Actual Average Record
Temperature  
Mean Temperature 34 °F -  
Max Temperature 36 °F 50 °F 77 °F (2003)
Min Temperature 30 °F 28 °F 10 °F (1972)
Degree Days  
Heating Degree Days 32    
Moisture  
Dew Point 32 °F    
Average Humidity 95    
Maximum Humidity 100    
Minimum Humidity 82    
Precipitation  
Precipitation 0.00 in - - ()
Sea Level Pressure  
Sea Level Pressure 29.71 in    
Wind  
Wind Speed 4 mph (West)    
Max Wind Speed 9 mph    
Max Gust Speed -    
Visibility 7 miles    
Events Fog , Rain , Snow    
Averages and records for this station are not official NWS values.
T = Trace of Precipitation, MM = Missing Value Source: NWS Daily Summary

Daily Weather History Graph

Daily Weather History Graph

Search for Another Location

Airport or City:

Trip Planner

Search our weather history database for the weather conditions in past years. The results will help you decide how hot, cold, wet, or windy it might be!

Date:

Astronomy

Oct. 19, 2013 Rise Set
Actual Time 7:44 AM CDT 6:23 PM CDT
Civil Twilight 7:13 AM CDT 6:55 PM CDT
Nautical Twilight 6:37 AM CDT 7:30 PM CDT
Astronomical Twilight 6:02 AM CDT 8:06 PM CDT
Moon 6:46 PM CDT (10/19) 8:27 AM CDT (10/19)
Length of Visible Light 11h 41m
Length of Day
10h 39m
Waxing Gibbous, 99% of the Moon is Illuminated
Oct 19
Waxing Gibbous
Oct 26
Last Quarter
Nov 3
New
Nov 9
First Quarter
Nov 17
Full

Hourly Weather History & Observations

Time (CDT) Temp. Windchill Dew Point Humidity Pressure Visibility Wind Dir Wind Speed Gust Speed Precip Events Conditions
12:12 AM 32.0 °F - 32.0 °F 100% 29.74 in 5.0 mi Calm Calm - N/A Rain Light Rain
12:32 AM 32.0 °F 28.7 °F 32.0 °F 100% 29.73 in 7.0 mi South 3.5 mph - N/A   Overcast
12:53 AM 32.0 °F - 32.0 °F 100% 29.72 in 7.0 mi Calm Calm - N/A   Overcast
1:12 AM 32.2 °F 28.9 °F 32.0 °F 99% 29.71 in 7.0 mi South 3.5 mph - N/A   Overcast
1:32 AM 32.4 °F 29.1 °F 32.0 °F 99% 29.71 in 10.0 mi SW 3.5 mph - N/A   Mostly Cloudy
1:52 AM 32.0 °F - 32.0 °F 100% 29.70 in 10.0 mi Calm Calm - N/A   Scattered Clouds
2:12 AM 31.8 °F - 31.5 °F 99% 29.70 in 10.0 mi Calm Calm - N/A   Clear
2:32 AM 31.3 °F 27.9 °F 31.1 °F 99% 29.69 in 10.0 mi SW 3.5 mph - N/A   Scattered Clouds
2:52 AM 31.6 °F 27.0 °F 31.5 °F 99% 29.69 in 1.8 mi WSW 4.6 mph - N/A   Overcast
3:12 AM 31.6 °F 27.0 °F 31.6 °F 100% 29.69 in 0.2 mi WSW 4.6 mph - N/A Snow Light Snow
3:32 AM 31.6 °F 28.3 °F 31.6 °F 100% 29.68 in 0.2 mi SW 3.5 mph - N/A Snow Light Snow
3:52 AM 32.0 °F 26.4 °F 32.0 °F 100% 29.68 in 0.2 mi WSW 5.8 mph - N/A Fog Fog
4:12 AM 32.0 °F 27.5 °F 32.0 °F 100% 29.67 in 0.2 mi West 4.6 mph - N/A Snow Light Snow
4:32 AM 32.0 °F 26.4 °F 32.0 °F 100% 29.67 in 0.2 mi West 5.8 mph - N/A Fog Fog
4:53 AM 31.8 °F 27.3 °F 31.8 °F 100% 29.66 in 0.5 mi West 4.6 mph - N/A Snow Light Snow
5:12 AM 31.6 °F - 31.6 °F 100% 29.66 in 0.2 mi Calm Calm - N/A Fog Light Freezing Fog
5:32 AM 31.6 °F 24.4 °F 31.6 °F 100% 29.66 in 0.2 mi West 8.1 mph - N/A Fog Fog
5:52 AM 32.0 °F 27.5 °F 32.0 °F 100% 29.66 in 0.2 mi WNW 4.6 mph - N/A Fog Fog
6:12 AM 32.0 °F 27.5 °F 32.0 °F 100% 29.66 in 0.2 mi WNW 4.6 mph - N/A Snow Light Snow
6:32 AM 32.0 °F 27.5 °F 32.0 °F 100% 29.67 in 0.5 mi West 4.6 mph - N/A Fog Fog
6:52 AM 32.0 °F - 32.0 °F 100% 29.66 in 0.5 mi Calm Calm - N/A Fog Fog
7:12 AM 32.0 °F - 32.0 °F 100% 29.66 in 0.5 mi Calm Calm - N/A Fog Fog
7:32 AM 32.2 °F 28.9 °F 32.2 °F 100% 29.67 in 0.2 mi WNW 3.5 mph - N/A Snow Light Snow
7:52 AM 32.2 °F 27.7 °F 32.2 °F 100% 29.67 in 1.2 mi NW 4.6 mph - N/A   Overcast
8:12 AM 32.4 °F 27.9 °F 32.4 °F 100% 29.67 in 2.5 mi NW 4.6 mph - N/A   Overcast
9:12 AM 32.9 °F - 32.9 °F 100% 29.68 in 3.0 mi Calm Calm - N/A   Overcast
9:32 AM 32.9 °F 28.5 °F 32.9 °F 100% 29.69 in 3.0 mi NW 4.6 mph - N/A   Overcast
9:52 AM 33.1 °F 26.9 °F 32.9 °F 99% 29.69 in 5.0 mi WNW 6.9 mph - N/A   Overcast
10:12 AM 33.3 °F 27.9 °F 32.7 °F 98% 29.69 in 7.0 mi NW 5.8 mph - N/A   Overcast
10:32 AM 33.8 °F 29.6 °F 33.3 °F 98% 29.69 in 5.0 mi NNW 4.6 mph - N/A   Overcast
10:52 AM 34.0 °F 28.0 °F 32.9 °F 96% 29.69 in 7.0 mi NW 6.9 mph - N/A   Overcast
11:12 AM 34.7 °F 30.6 °F 32.9 °F 93% 29.69 in 10.0 mi North 4.6 mph - N/A   Overcast
11:32 AM 34.7 °F 28.8 °F 33.1 °F 94% 29.70 in 10.0 mi West 6.9 mph - N/A   Overcast
11:52 AM 34.7 °F 29.6 °F 33.1 °F 94% 29.70 in 10.0 mi West 5.8 mph - N/A   Overcast
12:12 PM 34.9 °F 29.9 °F 32.5 °F 91% 29.71 in 10.0 mi NW 5.8 mph - N/A   Overcast
12:32 PM 34.3 °F 28.4 °F 32.7 °F 94% 29.72 in 10.0 mi West 6.9 mph - N/A   Overcast
12:52 PM 34.9 °F 29.9 °F 32.4 °F 91% 29.72 in 10.0 mi WNW 5.8 mph - N/A   Overcast
1:12 PM 35.8 °F 30.9 °F 32.5 °F 88% 29.72 in 10.0 mi WNW 5.8 mph - N/A   Overcast
1:32 PM 36.5 °F 30.3 °F 32.9 °F 87% 29.71 in 10.0 mi NW 8.1 mph - N/A   Overcast
1:53 PM 36.5 °F 30.3 °F 32.7 °F 86% 29.71 in 10.0 mi WNW 8.1 mph - N/A   Overcast
2:12 PM 36.5 °F 30.3 °F 32.5 °F 86% 29.72 in 10.0 mi West 8.1 mph - N/A   Overcast
2:32 PM 36.5 °F 30.3 °F 32.0 °F 84% 29.72 in 10.0 mi WNW 8.1 mph - N/A   Overcast
2:52 PM 36.1 °F 30.6 °F 32.0 °F 85% 29.73 in 10.0 mi West 6.9 mph - N/A   Overcast
3:12 PM 36.0 °F 29.6 °F 32.0 °F 86% 29.73 in 10.0 mi WNW 8.1 mph - N/A   Overcast
3:32 PM 35.6 °F 28.6 °F 32.0 °F 87% 29.74 in 10.0 mi WNW 9.2 mph - N/A   Overcast
3:52 PM 36.1 °F 29.3 °F 32.0 °F 85% 29.74 in 10.0 mi NW 9.2 mph - N/A   Overcast
4:12 PM 36.0 °F 29.0 °F 32.0 °F 86% 29.74 in 10.0 mi WNW 9.2 mph - N/A   Overcast
4:32 PM 35.6 °F 29.9 °F 31.5 °F 85% 29.74 in 10.0 mi West 6.9 mph - N/A   Overcast
4:52 PM 35.1 °F 28.6 °F 31.8 °F 88% 29.75 in 10.0 mi WNW 8.1 mph - N/A   Overcast
5:12 PM 35.1 °F 30.1 °F 31.3 °F 86% 29.75 in 10.0 mi WNW 5.8 mph - N/A   Overcast
5:32 PM 35.6 °F 32.8 °F 31.3 °F 84% 29.75 in 10.0 mi West 3.5 mph - N/A   Overcast
5:52 PM 35.6 °F - 30.7 °F 82% 29.74 in 10.0 mi Calm Calm - N/A   Scattered Clouds
6:12 PM 34.2 °F 31.2 °F 30.9 °F 88% 29.75 in 10.0 mi WSW 3.5 mph - N/A   Scattered Clouds
6:32 PM 34.2 °F 31.2 °F 31.5 °F 90% 29.75 in 10.0 mi WSW 3.5 mph - N/A   Mostly Cloudy
6:52 PM 33.1 °F 30.0 °F 30.9 °F 92% 29.75 in 10.0 mi SSW 3.5 mph - N/A   Scattered Clouds
7:12 PM 32.9 °F 28.5 °F 31.1 °F 93% 29.75 in 10.0 mi South 4.6 mph - N/A   Mostly Cloudy
7:32 PM 32.9 °F 28.5 °F 31.1 °F 93% 29.75 in 10.0 mi SSW 4.6 mph - N/A   Overcast
7:52 PM 33.3 °F 28.9 °F 31.8 °F 94% 29.75 in 10.0 mi SSW 4.6 mph - N/A   Overcast
8:12 PM 33.4 °F 30.4 °F 31.6 °F 93% 29.75 in 10.0 mi SSW 3.5 mph - N/A   Overcast
8:32 PM 33.3 °F 30.2 °F 32.0 °F 95% 29.74 in 10.0 mi SSW 3.5 mph - N/A   Overcast
8:52 PM 33.1 °F 30.0 °F 32.0 °F 96% 29.74 in 10.0 mi SW 3.5 mph - N/A   Overcast
9:12 PM 33.1 °F 30.0 °F 32.0 °F 96% 29.74 in 10.0 mi SW 3.5 mph - N/A   Overcast
9:32 PM 33.3 °F 27.9 °F 32.0 °F 95% 29.74 in 10.0 mi SW 5.8 mph - N/A   Overcast
9:52 PM 33.3 °F 28.9 °F 32.0 °F 95% 29.74 in 10.0 mi SW 4.6 mph - N/A   Overcast
10:12 PM 33.3 °F 28.9 °F 32.0 °F 95% 29.74 in 10.0 mi SW 4.6 mph - N/A   Overcast
10:32 PM 32.9 °F 29.8 °F 32.0 °F 96% 29.74 in 10.0 mi SSW 3.5 mph - N/A   Overcast
10:53 PM 32.4 °F 29.1 °F 32.0 °F 99% 29.73 in 10.0 mi WSW 3.5 mph - N/A   Scattered Clouds
11:12 PM 32.0 °F 28.7 °F 31.3 °F 97% 29.73 in 10.0 mi SW 3.5 mph - N/A   Scattered Clouds
11:32 PM 32.0 °F - 31.5 °F 98% 29.73 in 10.0 mi Calm Calm - N/A   Clear
11:52 PM 30.2 °F - 29.8 °F 99% 29.72 in 7.0 mi Calm Calm - N/A   Clear